Дружина

Россия / Республика Саха (Якутия)     68°12′03″N   145°18′59″E
темп.,
°C
ветер,
м/с
пор.,
м/с
влажн.,
%
обл.,
%
осадки,
мм/ч
давл.,
гПа
погр.,
м
27 февраля, сб
сб2723:00−35зюз1110039 0.0 103519
02:00−35зсз0010085 0.0 103419
05:00−34зсз1110091 0.1 103319
08:00−35зсз1110095 0.0 103419
11:00−33юз019796 0.1 103419
14:00−30з119498 0.0 1033123
17:00−33зсз119994 0.1 103219
20:00−35ю0110019 0.0 103219
28 февраля, вс
вс2823:00−36з0010038 0.0 103219
02:00−36в0010083 0.0 103119
05:00−35с0010091 0.0 103019
08:00−36всв01100100 0.0 103019
11:00−34ссз0198100 0.0 102919
14:00−32ссз009493 0.0 1028116
17:00−34ссз009749 0.0 102719
20:00−37сз111000 0.0 102819
1 марта, пн
пн123:00−37сз1110019 0.0 102819
02:00−38зсз1210016 0.0 102719
05:00−38зсз1210035 0.0 102619
08:00−39зсз221009 0.0 102618
11:00−37зсз229624 0.0 102621
14:00−34зсз229279 0.0 1025164
17:00−35зсз229565 0.0 102419
20:00−38з229839 0.0 102619
2 марта, вт
вт223:00−39зсз229848 0.0 102519
02:00−39з229958 0.0 102618
05:00−39з229939 0.0 102518
08:00−40з1110012 0.0 102718
11:00−36з119517 0.0 102719
14:00−34зюз119145 0.0 1028132
17:00−35юз009542 0.0 102819
20:00−38ююз0110058 0.0 102919
3 марта, ср
ср323:00−39юв0010046 0.0 103019
02:00−39вюв1110054 0.0 103019
05:00−39ююв1110069 0.0 102919
08:00−39всв129990 0.0 102918
11:00−37всв119694 0.0 102822
14:00−34ссв1191100 0.0 1026171
17:00−35с1195100 0.0 102519
20:00−36с2397100 0.0 102419